This is the latest recevied weather packets stored in our database for station/object IW3HBX-13. If no packets are shown the sender has not sent any weather packets the latest 10 day(s).
| Time | Temp. | Humidity | Pressure | Rain* | Wind** | Luminosity | Snow |
|---|---|---|---|---|---|---|---|
| 1777679287 | 11.11° C | 61% | 1026.8 hPa | 0 mm | - | 0 W/m² | - |
| 1777678927 | 11.11° C | 64% | 1026.9 hPa | 0 mm | - | 0 W/m² | - |
| 1777678567 | 10.56° C | 64% | 1026.8 hPa | 0 mm | - | 0 W/m² | - |
| 1777678211 | 10.56° C | 65% | 1026.8 hPa | 0 mm | - | 0 W/m² | - |
| 1777677849 | 11.11° C | 61% | 1026.7 hPa | 0 mm | - | 0 W/m² | - |
| 1777677490 | 11.11° C | 61% | 1026.7 hPa | 0 mm | - | 0 W/m² | - |
| 1777677128 | 11.11° C | 62% | 1026.8 hPa | 0 mm | - | 0 W/m² | - |
| 1777676768 | 11.67° C | 62% | 1026.8 hPa | 0 mm | - | 0 W/m² | - |
| 1777676048 | 11.67° C | 60% | 1026.7 hPa | 0 mm | - | 0 W/m² | - |
| 1777675689 | 11.67° C | 61% | 1026.7 hPa | 0 mm | - | 0 W/m² | - |
| 1777675329 | 11.67° C | 60% | 1026.8 hPa | 0 mm | - | 0 W/m² | - |
| 1777674967 | 11.67° C | 60% | 1026.7 hPa | 0 mm | - | 0 W/m² | - |
| 1777674608 | 11.67° C | 58% | 1026.7 hPa | 0 mm | - | 0 W/m² | - |
| 1777674248 | 11.67° C | 59% | 1026.8 hPa | 0 mm | - | 0 W/m² | - |
| 1777673888 | 12.22° C | 57% | 1026.6 hPa | 0 mm | - | 0 W/m² | - |
| 1777673531 | 13.33° C | 58% | 1026.7 hPa | 0 mm | - | 0 W/m² | - |
| 1777673168 | 13.33° C | 54% | 1026.5 hPa | 0 mm | - | 0 W/m² | - |
| 1777672447 | 13.89° C | 53% | 1026.4 hPa | 0 mm | - | 0 W/m² | - |
| 1777672088 | 13.89° C | 53% | 1026.4 hPa | 0 mm | - | 0 W/m² | - |
| 1777671728 | 13.89° C | 53% | 1026.4 hPa | 0 mm | - | 0 W/m² | - |
| 1777671367 | 13.89° C | 49% | 1026.2 hPa | 0 mm | - | 0 W/m² | - |
| 1777671007 | 13.89° C | 50% | 1026.3 hPa | 0 mm | - | 0 W/m² | - |
| 1777670647 | 13.89° C | 52% | 1026.3 hPa | 0 mm | - | 0 W/m² | - |
| 1777670287 | 13.89° C | 52% | 1026.2 hPa | 0 mm | - | 0 W/m² | - |
| 1777669929 | 14.44° C | 50% | 1026.1 hPa | 0 mm | - | 0 W/m² | - |
* Rain latest hour (hover to see other rain measurements)
** Current wind speed in m/s (hover to see current wind gust speed)